Regional Weather Roundup
Issued by NWS

Home | Current Version | Previous Version | Text Only | Print | Product List | Glossary Off
Versions: 1 2 3 4 5 6 7 8 9 10 11 12 13 14 15 16 17 18 19 20 21 22 23 24 25 26 27 28 29 30 31 32 33 34 35 36 37 38 39 40 41 42 43 44 45 46 47 48 49

000
ASUS45 KCYS 011710
RWRWY

WYOMING REGIONAL WEATHER ROUNDUP
NATIONAL WEATHER SERVICE CHEYENNE WY
1100 AM MDT WED OCT 01 2014

NOTE:  "FAIR" INDICATES FEW OR NO CLOUDS BELOW 12,000 FEET
WITH NO SIGNIFICANT WEATHER AND/OR OBSTRUCTIONS TO VISIBILITY.

WYZ001-011800-
YELLOWSTONE NATIONAL PARK

CITY           SKY/WX    TMP DP  RH WIND       PRES   REMARKS
LK YELLOWSTONE   N/A     35  28  75 VRB6      30.07R WCI  30
W YELLOWSTONE  NOT AVBL

$$
WYZ002>013-054>058-071-098>099-011800-
NORTHERN WYOMING

CITY           SKY/WX    TMP DP  RH WIND       PRES   REMARKS
JACKSON        PTSUNNY   39  36  87 CALM      30.05R
CODY           PTSUNNY   43  36  75 CALM      30.00S
GREYBULL       PTSUNNY   53  35  50 NW20G28   29.95R
WORLAND        LGT RAIN  48  37  65 NW14      29.97R
SHERIDAN       CLOUDY    48  40  73 W15       29.97S
BUFFALO        CLOUDY    44  37  76 N23G32    29.97R
GILLETTE       CLOUDY    48  39  71 NW17      29.93S
HULETT         CLOUDY    46  39  76 NW9       29.93
NEWCASTLE      FAIR      50  36  57 NW18G29   29.92

$$
WYZ014>020-022>026-101>103-011800-
CENTRAL WYOMING

CITY           SKY/WX    TMP DP  RH WIND       PRES   REMARKS
BIG PINEY      LGT RAIN  41  31  67 NW14G24   30.03R
PINEDALE       CLOUDY    39  32  75 W16G24    30.02R WCI  30
DUBOIS         CLOUDY    41  27  56 NW13      29.99R
LANDER         CLOUDY    46  38  73 E7        29.98R
RIVERTON       LGT RAIN  42  39  89 N13       30.00R
CASPER         LGT RAIN  42  39  89 NE13      29.97F FOG
DOUGLAS        CLOUDY    46  42  86 N15       29.96R

$$
WYZ021-027>030-104>119-011800-
SOUTHERN WYOMING

CITY           SKY/WX    TMP DP  RH WIND       PRES   REMARKS
EVANSTON       PTSUNNY   40  28  62 NW9       30.08R WCI  34
KEMMERER       PTSUNNY   41  32  70 W18G25    30.06R
FORT BRIDGER   PTSUNNY   43  32  65 NW15      30.09S
ROCK SPRINGS   SUNNY     43  29  57 W16       30.02S
DIXON          CLOUDY    45  40  82 W5        30.04R
RAWLINS        CLOUDY    42  32  67 W10       30.00R
SARATOGA       CLOUDY    43  34  70 W8        30.02R
LARAMIE        PTSUNNY   47  29  49 NW15      29.96S
CHEYENNE       MOSUNNY  N/A N/A N/A S9G21     29.92F
TORRINGTON     MOSUNNY   58  45  62 W6        29.89S
PINE BLUFFS    FAIR      57  37  47 N10       29.92S

$$



USA.gov is the U.S. government's official web portal to all federal, state and local government web resources and services.